Burnet, TX

10:52 AM CST on December 16, 2017 (GMT -0600)
Burnet Municipal-Craddock

Weather History for KBMQ - October, 2012

Change the Weather History Date:

Sunday, October 21, 2012

  Actual Average Record
Temperature  
Mean Temperature 80 °F -  
Max Temperature 88 °F 74 °F 88 °F (2012)
Min Temperature 72 °F 55 °F 42 °F (1999)
Cooling Degree Days 14    
Growing Degree Days 30 (Base 50)    
Moisture  
Dew Point 67 °F    
Average Humidity 71    
Maximum Humidity 84    
Minimum Humidity 44    
Precipitation  
Precipitation 0.00 in - - ()
Sea Level Pressure  
Sea Level Pressure 29.87 in    
Wind  
Wind Speed 14 mph (South)    
Max Wind Speed 18 mph    
Max Gust Speed 26 mph    
Visibility 9 miles    
Events      
Averages and records for this station are not official NWS values.
T = Trace of Precipitation, MM = Missing Value Source: NWS Daily Summary

Daily Weather History Graph

Daily Weather History Graph

Search for Another Location

Airport or City:

Trip Planner

Search our weather history database for the weather conditions in past years. The results will help you decide how hot, cold, wet, or windy it might be!

Date:

Astronomy

Oct. 21, 2012 Rise Set
Actual Time 7:39 AM CDT 6:54 PM CDT
Civil Twilight 7:15 AM CDT 7:19 PM CDT
Nautical Twilight 6:47 AM CDT 7:47 PM CDT
Astronomical Twilight 6:19 AM CDT 8:15 PM CDT
Moon 1:54 PM CDT (10/21) No Moon Set
Length of Visible Light 12h 03m
Length of Day
11h 14m
Waxing Crescent, 45% of the Moon is Illuminated
Oct 21
Waxing Crescent
Oct 21
First Quarter
Oct 29
Full
Nov 6
Last Quarter
Nov 13
New

Hourly Weather History & Observations

Time (CDT) Temp. Heat Index Dew Point Humidity Pressure Visibility Wind Dir Wind Speed Gust Speed Precip Events Conditions
12:28 AM 75.0 °F - 70.0 °F 84% 29.86 in 8.0 mi South 15.0 mph 21.9 mph N/A   Mostly Cloudy
12:53 AM 75.0 °F - 70.0 °F 84% 29.81 in 8.0 mi South 13.8 mph 21.9 mph N/A   Overcast
1:02 AM 75.0 °F - 70.0 °F 84% 29.87 in 8.0 mi South 15.0 mph 20.7 mph N/A   Overcast
1:45 AM 75.0 °F - 69.1 °F 82% 29.87 in 8.0 mi South 15.0 mph - N/A   Overcast
1:53 AM 75.0 °F - 69.1 °F 82% 29.82 in 8.0 mi South 15.0 mph - N/A   Overcast
2:53 AM 75.0 °F - 69.1 °F 82% 29.82 in 8.0 mi South 15.0 mph 21.9 mph N/A   Overcast
3:48 AM 75.2 °F - 68.0 °F 78% 29.88 in 8.0 mi South 12.7 mph 21.9 mph N/A   Scattered Clouds
3:53 AM 73.9 °F - 68.0 °F 82% 29.82 in 8.0 mi South 13.8 mph 21.9 mph N/A   Scattered Clouds
4:53 AM 73.9 °F - 68.0 °F 82% 29.83 in 9.0 mi South 15.0 mph 19.6 mph N/A   Mostly Cloudy
5:31 AM 73.0 °F - 66.9 °F 81% 29.88 in 9.0 mi South 12.7 mph 23.0 mph N/A   Partly Cloudy
5:53 AM 73.0 °F - 66.9 °F 81% 29.84 in 9.0 mi South 10.4 mph 18.4 mph N/A   Partly Cloudy
6:53 AM 72.0 °F - 66.9 °F 84% 29.85 in 8.0 mi South 10.4 mph - N/A   Scattered Clouds
7:25 AM 72.0 °F - 66.9 °F 84% 29.91 in 8.0 mi South 10.4 mph - N/A   Mostly Cloudy
7:53 AM 72.0 °F - 66.9 °F 84% 29.86 in 7.0 mi South 12.7 mph - N/A   Mostly Cloudy
8:53 AM 73.0 °F - 66.9 °F 81% 29.90 in 7.0 mi South 11.5 mph - N/A   Overcast
9:53 AM 73.9 °F - 68.0 °F 82% 29.91 in 7.0 mi South 11.5 mph - N/A   Overcast
10:53 AM 77.0 °F - 68.0 °F 74% 29.92 in 7.0 mi SSW 18.4 mph 25.3 mph N/A   Overcast
11:31 AM 79.0 °F - 66.9 °F 66% 29.96 in 8.0 mi South 15.0 mph 26.5 mph N/A   Scattered Clouds
11:53 AM 81.0 °F 83.3 °F 66.9 °F 62% 29.91 in 8.0 mi SSW 17.3 mph 24.2 mph N/A   Scattered Clouds
12:53 PM 82.9 °F 85.4 °F 66.9 °F 58% 29.89 in 10.0 mi SSW 13.8 mph 25.3 mph N/A   Unknown
1:53 PM 84.9 °F 87.1 °F 66.0 °F 53% 29.86 in 10.0 mi South 17.3 mph 23.0 mph N/A   Clear
2:53 PM 86.0 °F 87.3 °F 64.0 °F 48% 29.83 in 10.0 mi South 17.3 mph - N/A   Clear
3:53 PM 87.1 °F 88.9 °F 64.9 °F 48% 29.82 in 10.0 mi South 12.7 mph 20.7 mph N/A   Clear
4:53 PM 87.1 °F 87.8 °F 63.0 °F 44% 29.83 in 10.0 mi South 12.7 mph 21.9 mph N/A   Clear
5:53 PM 86.0 °F 86.8 °F 63.0 °F 46% 29.83 in 10.0 mi South 11.5 mph - N/A   Clear
6:53 PM 82.9 °F 83.7 °F 62.1 °F 49% 29.85 in 10.0 mi South 9.2 mph - N/A   Clear
7:53 PM 81.0 °F 82.5 °F 64.0 °F 56% 29.87 in 10.0 mi SSE 8.1 mph - N/A   Unknown
8:53 PM 80.1 °F 82.1 °F 66.0 °F 62% 29.88 in 10.0 mi SSE 10.4 mph 17.3 mph N/A   Clear
9:53 PM 78.1 °F - 64.9 °F 64% 29.90 in 10.0 mi SSE 10.4 mph 18.4 mph N/A   Clear
10:53 PM 75.0 °F - 66.0 °F 73% 29.91 in 10.0 mi South 9.2 mph - N/A   Clear
11:53 PM 73.9 °F - 66.9 °F 79% 29.91 in 10.0 mi SSE 11.5 mph 19.6 mph N/A   Scattered Clouds